Year,Month,Day,Hour,Minute,Value (Times are PST for temperature in C)
2015,08,17,00,00,15.10
2015,08,17,00,01,15.10
2015,08,17,00,02,15.10
2015,08,17,00,03,15.10
2015,08,17,00,04,15.10
2015,08,17,00,05,15.00
2015,08,17,00,06,15.00
2015,08,17,00,07,15.00
2015,08,17,00,08,15.00
2015,08,17,00,09,15.00
2015,08,17,00,10,15.00
2015,08,17,00,11,15.00
2015,08,17,00,12,15.00
2015,08,17,00,13,15.00
2015,08,17,00,14,15.00
2015,08,17,00,15,15.00
2015,08,17,00,16,15.00
2015,08,17,00,17,15.00
2015,08,17,00,18,15.00
2015,08,17,00,19,15.00
2015,08,17,00,20,14.90
2015,08,17,00,21,14.90
2015,08,17,00,22,14.90
2015,08,17,00,23,14.90
2015,08,17,00,24,14.90
2015,08,17,00,25,14.90
2015,08,17,00,26,14.90
2015,08,17,00,27,14.90
2015,08,17,00,28,14.90
2015,08,17,00,29,14.90
2015,08,17,00,30,14.90
2015,08,17,00,31,14.90
2015,08,17,00,32,14.90
2015,08,17,00,33,14.90
2015,08,17,00,34,14.90
2015,08,17,00,35,14.80
2015,08,17,00,36,14.80
2015,08,17,00,37,14.70
2015,08,17,00,38,14.60
2015,08,17,00,39,14.50
2015,08,17,00,40,14.40
2015,08,17,00,41,14.30
2015,08,17,00,42,14.20
2015,08,17,00,43,14.20
2015,08,17,00,44,14.10
2015,08,17,00,45,14.00
2015,08,17,00,46,14.00
2015,08,17,00,47,13.90
2015,08,17,00,48,13.90
2015,08,17,00,49,13.80
2015,08,17,00,50,13.80
2015,08,17,00,51,13.80
2015,08,17,00,52,13.80
2015,08,17,00,53,13.70
2015,08,17,00,54,13.70
2015,08,17,00,55,13.70
2015,08,17,00,56,13.70
2015,08,17,00,57,13.60
2015,08,17,00,58,13.60
2015,08,17,00,59,13.60
2015,08,17,01,00,13.60
2015,08,17,01,01,13.60
2015,08,17,01,02,13.50
2015,08,17,01,03,13.50
2015,08,17,01,04,13.50
2015,08,17,01,05,13.50
2015,08,17,01,06,13.50
2015,08,17,01,07,13.40
2015,08,17,01,08,13.40
2015,08,17,01,09,13.40
2015,08,17,01,10,13.30
2015,08,17,01,11,13.30
2015,08,17,01,12,13.30
2015,08,17,01,13,13.30
2015,08,17,01,14,13.30
2015,08,17,01,15,13.20
2015,08,17,01,16,13.20
2015,08,17,01,17,13.20
2015,08,17,01,18,13.20
2015,08,17,01,19,13.20
2015,08,17,01,20,13.20
2015,08,17,01,21,13.20
2015,08,17,01,22,13.20
2015,08,17,01,23,13.20
2015,08,17,01,24,13.20
2015,08,17,01,25,13.20
2015,08,17,01,26,13.20
2015,08,17,01,27,13.20
2015,08,17,01,28,13.20
2015,08,17,01,29,13.20
2015,08,17,01,30,13.20
2015,08,17,01,31,13.20
2015,08,17,01,32,13.20
2015,08,17,01,33,13.20
2015,08,17,01,34,13.20
2015,08,17,01,35,13.20
2015,08,17,01,36,13.20
2015,08,17,01,37,13.20
2015,08,17,01,38,13.20
2015,08,17,01,39,13.20
2015,08,17,01,40,13.20
2015,08,17,01,41,13.20
2015,08,17,01,42,13.20
2015,08,17,01,43,13.20
2015,08,17,01,44,13.20
2015,08,17,01,45,13.20
2015,08,17,01,46,13.20
2015,08,17,01,47,13.20
2015,08,17,01,48,13.20
2015,08,17,01,49,13.20
2015,08,17,01,50,13.20
2015,08,17,01,51,13.20
2015,08,17,01,52,13.20
2015,08,17,01,53,13.20
2015,08,17,01,54,13.20
2015,08,17,01,55,13.20
2015,08,17,01,56,13.20
2015,08,17,01,57,13.20
2015,08,17,01,58,13.20
2015,08,17,01,59,13.20
2015,08,17,02,00,13.20
2015,08,17,02,01,13.20
2015,08,17,02,02,13.20
2015,08,17,02,03,13.20
2015,08,17,02,04,13.20
2015,08,17,02,05,13.20
2015,08,17,02,06,13.20
2015,08,17,02,07,13.20
2015,08,17,02,08,13.20
2015,08,17,02,09,13.20
2015,08,17,02,10,13.20
2015,08,17,02,11,13.20
2015,08,17,02,12,13.10
2015,08,17,02,13,13.10
2015,08,17,02,14,13.10
2015,08,17,02,15,13.10
2015,08,17,02,16,13.10
2015,08,17,02,17,13.10
2015,08,17,02,18,13.10
2015,08,17,02,19,13.10
2015,08,17,02,20,13.10
2015,08,17,02,21,13.00
2015,08,17,02,22,13.00
2015,08,17,02,23,13.00
2015,08,17,02,24,13.00
2015,08,17,02,25,13.00
2015,08,17,02,26,13.00
2015,08,17,02,27,13.00
2015,08,17,02,28,13.00
2015,08,17,02,29,13.00
2015,08,17,02,30,13.00
2015,08,17,02,31,13.00
2015,08,17,02,32,12.90
2015,08,17,02,33,12.90
2015,08,17,02,34,12.90
2015,08,17,02,35,12.90
2015,08,17,02,36,12.90
2015,08,17,02,37,12.90
2015,08,17,02,38,12.90
2015,08,17,02,39,12.90
2015,08,17,02,40,12.90
2015,08,17,02,41,12.90
2015,08,17,02,42,12.90
2015,08,17,02,43,12.90
2015,08,17,02,44,12.90
2015,08,17,02,45,12.90
2015,08,17,02,46,12.80
2015,08,17,02,47,12.80
2015,08,17,02,48,12.80
2015,08,17,02,49,12.80
2015,08,17,02,50,12.80
2015,08,17,02,51,12.80
2015,08,17,02,52,12.80
2015,08,17,02,53,12.80
2015,08,17,02,54,12.80
2015,08,17,02,55,12.80
2015,08,17,02,56,12.80
2015,08,17,02,57,12.80
2015,08,17,02,58,12.80
2015,08,17,02,59,12.80
2015,08,17,03,00,12.80
2015,08,17,03,01,12.80
2015,08,17,03,02,12.80
2015,08,17,03,03,12.90
2015,08,17,03,04,12.90
2015,08,17,03,05,12.90
2015,08,17,03,06,12.90
2015,08,17,03,07,13.00
2015,08,17,03,08,13.00
2015,08,17,03,09,13.00
2015,08,17,03,10,13.00
2015,08,17,03,11,13.00
2015,08,17,03,12,13.00
2015,08,17,03,13,13.00
2015,08,17,03,14,13.00
2015,08,17,03,15,13.10
2015,08,17,03,16,13.10
2015,08,17,03,17,13.10
2015,08,17,03,18,13.10
2015,08,17,03,19,13.10
2015,08,17,03,20,13.20
2015,08,17,03,21,13.20
2015,08,17,03,22,13.20
2015,08,17,03,23,13.20
2015,08,17,03,24,13.20
2015,08,17,03,25,13.20
2015,08,17,03,26,13.20
2015,08,17,03,27,13.20
2015,08,17,03,28,13.20
2015,08,17,03,29,13.20
2015,08,17,03,30,13.20
2015,08,17,03,31,13.20
2015,08,17,03,32,13.20
2015,08,17,03,33,13.20
2015,08,17,03,34,13.20
2015,08,17,03,35,13.20
2015,08,17,03,36,13.20
2015,08,17,03,37,13.20
2015,08,17,03,38,13.20
2015,08,17,03,39,13.20
2015,08,17,03,40,13.20
2015,08,17,03,41,13.20
2015,08,17,03,42,13.20
2015,08,17,03,43,13.20
2015,08,17,03,44,13.20
2015,08,17,03,45,13.20
2015,08,17,03,46,13.20
2015,08,17,03,47,13.20
2015,08,17,03,48,13.20
2015,08,17,03,49,13.20
2015,08,17,03,50,13.20
2015,08,17,03,51,13.20
2015,08,17,03,52,13.20
2015,08,17,03,53,13.20
2015,08,17,03,54,13.20
2015,08,17,03,55,13.20
2015,08,17,03,56,13.20
2015,08,17,03,57,13.20
2015,08,17,03,58,13.20
2015,08,17,03,59,13.20
2015,08,17,04,00,13.20
2015,08,17,04,01,13.10
2015,08,17,04,02,13.10
2015,08,17,04,03,13.10
2015,08,17,04,04,13.10
2015,08,17,04,05,13.10
2015,08,17,04,06,13.10
2015,08,17,04,07,13.10
2015,08,17,04,08,13.10
2015,08,17,04,09,13.10
2015,08,17,04,10,13.10
2015,08,17,04,11,13.10
2015,08,17,04,12,13.10
2015,08,17,04,13,13.10
2015,08,17,04,14,13.10
2015,08,17,04,15,13.10
2015,08,17,04,16,13.10
2015,08,17,04,17,13.10
2015,08,17,04,18,13.00
2015,08,17,04,19,13.00
2015,08,17,04,20,13.00
2015,08,17,04,21,13.00
2015,08,17,04,22,13.00
2015,08,17,04,23,13.00
2015,08,17,04,24,13.00
2015,08,17,04,25,13.00
2015,08,17,04,26,13.00
2015,08,17,04,27,13.00
2015,08,17,04,28,13.00
2015,08,17,04,29,13.00
2015,08,17,04,30,13.00
2015,08,17,04,31,12.90
2015,08,17,04,32,12.90
2015,08,17,04,33,12.90
2015,08,17,04,34,12.90
2015,08,17,04,35,12.90
2015,08,17,04,36,12.90
2015,08,17,04,37,12.90
2015,08,17,04,38,12.90
2015,08,17,04,39,12.90
2015,08,17,04,40,12.90
2015,08,17,04,41,12.90
2015,08,17,04,42,12.90
2015,08,17,04,43,12.90
2015,08,17,04,44,12.90
2015,08,17,04,45,13.00
2015,08,17,04,46,13.00
2015,08,17,04,47,13.00
2015,08,17,04,48,13.00
2015,08,17,04,49,13.00
2015,08,17,04,50,13.00
2015,08,17,04,51,13.00
2015,08,17,04,52,13.00
2015,08,17,04,53,12.90
2015,08,17,04,54,13.00
2015,08,17,04,55,13.00
2015,08,17,04,56,13.00
2015,08,17,04,57,13.00
2015,08,17,04,58,13.00
2015,08,17,04,59,13.10
2015,08,17,05,00,13.10
2015,08,17,05,01,13.10
2015,08,17,05,02,13.10
2015,08,17,05,03,13.00
2015,08,17,05,04,13.00
2015,08,17,05,05,13.00
2015,08,17,05,06,12.90
2015,08,17,05,07,12.90
2015,08,17,05,08,12.90
2015,08,17,05,09,12.90
2015,08,17,05,10,12.90
2015,08,17,05,11,12.90
2015,08,17,05,12,12.90
2015,08,17,05,13,12.90
2015,08,17,05,14,12.90
2015,08,17,05,15,12.90
2015,08,17,05,16,12.90
2015,08,17,05,17,12.90
2015,08,17,05,18,12.90
2015,08,17,05,19,12.90
2015,08,17,05,20,12.90
2015,08,17,05,21,12.80
2015,08,17,05,22,12.80
2015,08,17,05,23,12.80
2015,08,17,05,24,12.80
2015,08,17,05,25,12.80
2015,08,17,05,26,12.80
2015,08,17,05,27,12.80
2015,08,17,05,28,12.90
2015,08,17,05,29,12.90
2015,08,17,05,30,12.90
2015,08,17,05,31,12.90
2015,08,17,05,32,12.90
2015,08,17,05,33,12.90
2015,08,17,05,34,12.90
2015,08,17,05,35,12.90
2015,08,17,05,36,12.90
2015,08,17,05,37,12.90
2015,08,17,05,38,13.00
2015,08,17,05,39,13.00
2015,08,17,05,40,13.10
2015,08,17,05,41,13.10
2015,08,17,05,42,13.10
2015,08,17,05,43,13.20
2015,08,17,05,44,13.20
2015,08,17,05,45,13.20
2015,08,17,05,46,13.20
2015,08,17,05,47,13.20
2015,08,17,05,48,13.20
2015,08,17,05,49,13.20
2015,08,17,05,50,13.20
2015,08,17,05,51,13.20
2015,08,17,05,52,13.20
2015,08,17,05,53,13.30
2015,08,17,05,54,13.40
2015,08,17,05,55,13.40
2015,08,17,05,56,13.50
2015,08,17,05,57,13.50
2015,08,17,05,58,13.50
2015,08,17,05,59,13.50
2015,08,17,06,00,13.50
2015,08,17,06,01,13.50
2015,08,17,06,02,13.40
2015,08,17,06,03,13.30
2015,08,17,06,04,13.30
2015,08,17,06,05,13.20
2015,08,17,06,06,13.10
2015,08,17,06,07,13.00
2015,08,17,06,08,13.00
2015,08,17,06,09,12.90
2015,08,17,06,10,12.90
2015,08,17,06,11,12.80
2015,08,17,06,12,12.80
2015,08,17,06,13,12.80
2015,08,17,06,14,12.80
2015,08,17,06,15,12.70
2015,08,17,06,16,12.70
2015,08,17,06,17,12.60
2015,08,17,06,18,12.60
2015,08,17,06,19,12.60
2015,08,17,06,20,12.50
2015,08,17,06,21,12.50
2015,08,17,06,22,12.50
2015,08,17,06,23,12.50
2015,08,17,06,24,12.50
2015,08,17,06,25,12.40
2015,08,17,06,26,12.40
2015,08,17,06,27,12.40
2015,08,17,06,28,12.40
2015,08,17,06,29,12.40
2015,08,17,06,30,12.40
2015,08,17,06,31,12.40
2015,08,17,06,32,12.40
2015,08,17,06,33,12.40
2015,08,17,06,34,12.40
2015,08,17,06,35,12.40
2015,08,17,06,36,12.50
2015,08,17,06,37,12.50
2015,08,17,06,38,12.50
2015,08,17,06,39,12.50
2015,08,17,06,40,12.60
2015,08,17,06,41,12.60
2015,08,17,06,42,12.60
2015,08,17,06,43,12.60
2015,08,17,06,44,12.60
2015,08,17,06,45,12.60
2015,08,17,06,46,12.60
2015,08,17,06,47,12.70
2015,08,17,06,48,12.70
2015,08,17,06,49,12.70
2015,08,17,06,50,12.70
2015,08,17,06,51,12.80
2015,08,17,06,52,12.80
2015,08,17,06,53,12.80
2015,08,17,06,54,13.00
2015,08,17,06,55,13.00
2015,08,17,06,56,13.10
2015,08,17,06,57,13.20
2015,08,17,06,58,13.20
2015,08,17,06,59,13.20
2015,08,17,07,00,13.30
2015,08,17,07,01,13.30
2015,08,17,07,02,13.30
2015,08,17,07,03,13.30
2015,08,17,07,04,13.30
2015,08,17,07,05,13.40
2015,08,17,07,06,13.40
2015,08,17,07,07,13.40
2015,08,17,07,08,13.40
2015,08,17,07,09,13.50
2015,08,17,07,10,13.50
2015,08,17,07,11,13.50
2015,08,17,07,12,13.60
2015,08,17,07,13,13.60
2015,08,17,07,14,13.60
2015,08,17,07,15,13.70
2015,08,17,07,16,13.70
2015,08,17,07,17,13.80
2015,08,17,07,18,13.80
2015,08,17,07,19,13.90
2015,08,17,07,20,13.90
2015,08,17,07,21,14.00
2015,08,17,07,22,14.00
2015,08,17,07,23,14.10
2015,08,17,07,24,14.10
2015,08,17,07,25,14.20
2015,08,17,07,26,14.20
2015,08,17,07,27,14.30
2015,08,17,07,28,14.40
2015,08,17,07,29,14.40
2015,08,17,07,30,14.50
2015,08,17,07,31,14.50
2015,08,17,07,32,14.60
2015,08,17,07,33,14.70
2015,08,17,07,34,14.80
2015,08,17,07,35,15.00
2015,08,17,07,36,15.10
2015,08,17,07,37,15.20
2015,08,17,07,38,15.40
2015,08,17,07,39,15.50
2015,08,17,07,40,15.50
2015,08,17,07,41,15.60
2015,08,17,07,42,15.60
2015,08,17,07,43,15.70
2015,08,17,07,44,15.80
2015,08,17,07,45,15.90
2015,08,17,07,46,16.00
2015,08,17,07,47,16.10
2015,08,17,07,48,16.20
2015,08,17,07,49,16.30
2015,08,17,07,50,16.50
2015,08,17,07,51,16.60
2015,08,17,07,52,16.70
2015,08,17,07,53,16.80
2015,08,17,07,54,16.80
2015,08,17,07,55,16.80
2015,08,17,07,56,16.80
2015,08,17,07,57,16.70
2015,08,17,07,58,16.70
2015,08,17,07,59,16.80
2015,08,17,08,00,16.80
2015,08,17,08,01,16.80
2015,08,17,08,02,16.90
2015,08,17,08,03,16.90
2015,08,17,08,04,17.00
2015,08,17,08,05,17.10
2015,08,17,08,06,17.20
2015,08,17,08,07,17.30
2015,08,17,08,08,17.30
2015,08,17,08,09,17.40
2015,08,17,08,10,17.40
2015,08,17,08,11,17.50
2015,08,17,08,12,17.50
2015,08,17,08,13,17.60
2015,08,17,08,14,17.60
2015,08,17,08,15,17.60
2015,08,17,08,16,17.50
2015,08,17,08,17,17.50
2015,08,17,08,18,17.40
2015,08,17,08,19,17.40
2015,08,17,08,20,17.40
2015,08,17,08,21,17.40
2015,08,17,08,22,17.40
2015,08,17,08,23,17.40
2015,08,17,08,24,17.40
2015,08,17,08,25,17.50
2015,08,17,08,26,17.50
2015,08,17,08,27,17.50
2015,08,17,08,28,17.50
2015,08,17,08,29,17.60
2015,08,17,08,30,17.60
2015,08,17,08,31,17.60
2015,08,17,08,32,17.70
2015,08,17,08,33,17.70
2015,08,17,08,34,17.70
2015,08,17,08,35,17.80
2015,08,17,08,36,17.80
2015,08,17,08,37,17.80
2015,08,17,08,38,17.70
2015,08,17,08,39,17.60
2015,08,17,08,40,17.40
2015,08,17,08,41,17.20
2015,08,17,08,42,17.00
2015,08,17,08,43,16.90
2015,08,17,08,44,16.80
2015,08,17,08,45,16.60
2015,08,17,08,46,16.60
2015,08,17,08,47,16.50
2015,08,17,08,48,16.40
2015,08,17,08,49,16.40
2015,08,17,08,50,16.40
2015,08,17,08,51,16.40
2015,08,17,08,52,16.40
2015,08,17,08,53,16.30
2015,08,17,08,54,16.30
2015,08,17,08,55,16.30
2015,08,17,08,56,16.30
2015,08,17,08,57,16.30
2015,08,17,08,58,16.40
2015,08,17,08,59,16.50
2015,08,17,09,00,16.60
2015,08,17,09,01,16.70
2015,08,17,09,02,16.70
2015,08,17,09,03,16.80
2015,08,17,09,04,16.90
2015,08,17,09,05,17.00
2015,08,17,09,06,17.00
2015,08,17,09,07,17.10
2015,08,17,09,08,17.20
2015,08,17,10,51,18.60
2015,08,17,10,52,18.60
2015,08,17,10,53,18.60
2015,08,17,10,54,18.60
2015,08,17,10,55,18.70
2015,08,17,10,56,18.70
2015,08,17,10,57,18.70
2015,08,17,10,58,18.80
2015,08,17,10,59,18.80
2015,08,17,11,00,18.80
2015,08,17,11,01,18.90
2015,08,17,11,02,19.00
2015,08,17,11,03,19.00
2015,08,17,11,04,19.10
2015,08,17,11,05,19.00
2015,08,17,11,06,19.00
2015,08,17,11,07,19.00
2015,08,17,11,08,18.90
2015,08,17,11,09,18.90
2015,08,17,11,10,18.90
2015,08,17,11,11,18.90
2015,08,17,11,12,18.90
2015,08,17,11,13,18.90
2015,08,17,11,14,19.00
2015,08,17,11,15,19.00
2015,08,17,11,16,19.10
2015,08,17,11,17,19.20
2015,08,17,11,18,19.20
2015,08,17,11,19,19.30
2015,08,17,11,20,19.40
2015,08,17,11,21,19.40
2015,08,17,11,22,19.50
2015,08,17,11,23,19.50
2015,08,17,11,24,19.50
2015,08,17,11,25,19.50
2015,08,17,11,26,19.40
2015,08,17,11,27,19.40
2015,08,17,11,28,19.40
2015,08,17,11,29,19.50
2015,08,17,11,30,19.60
2015,08,17,11,31,19.60
2015,08,17,11,32,19.60
2015,08,17,11,33,19.50
2015,08,17,11,34,19.50
2015,08,17,11,35,19.50
2015,08,17,11,36,19.60
2015,08,17,11,37,19.60
2015,08,17,11,38,19.60
2015,08,17,11,39,19.60
2015,08,17,11,40,19.60
2015,08,17,11,41,19.60
2015,08,17,11,42,19.60
2015,08,17,11,43,19.70
2015,08,17,11,44,19.70
2015,08,17,11,45,19.70
2015,08,17,11,46,19.70
2015,08,17,11,47,19.80
2015,08,17,11,48,19.90
2015,08,17,11,49,20.00
2015,08,17,11,50,20.00
2015,08,17,11,51,20.00
2015,08,17,11,52,20.00
2015,08,17,11,53,19.90
2015,08,17,11,54,19.80
2015,08,17,11,55,19.80
2015,08,17,11,56,19.80
2015,08,17,11,57,19.80
2015,08,17,11,58,19.80
2015,08,17,11,59,19.80
2015,08,17,12,00,19.80
2015,08,17,12,01,19.70
2015,08,17,12,02,19.70
2015,08,17,12,03,19.60
2015,08,17,12,04,19.60
2015,08,17,12,05,19.50
2015,08,17,12,06,19.50
2015,08,17,12,07,19.50
2015,08,17,12,08,19.50
2015,08,17,12,09,19.50
2015,08,17,12,10,19.60
2015,08,17,12,11,19.60
2015,08,17,12,12,19.60
2015,08,17,12,13,19.70
2015,08,17,12,14,19.70
2015,08,17,12,15,19.70
2015,08,17,12,16,19.70
2015,08,17,12,17,19.70
2015,08,17,12,18,19.80
2015,08,17,12,19,19.80
2015,08,17,12,20,19.90
2015,08,17,12,21,19.90
2015,08,17,12,22,20.00
2015,08,17,12,23,20.10
2015,08,17,12,24,20.10
2015,08,17,12,25,20.10
2015,08,17,12,26,20.20
2015,08,17,12,27,20.20
2015,08,17,12,28,20.30
2015,08,17,12,29,20.40
2015,08,17,12,30,20.40
2015,08,17,12,31,20.40
2015,08,17,12,32,20.40
2015,08,17,12,33,20.40
2015,08,17,12,34,20.30
2015,08,17,12,35,20.30
2015,08,17,12,36,20.30
2015,08,17,12,37,20.20
2015,08,17,12,38,20.20
2015,08,17,12,39,20.20
2015,08,17,12,40,20.20
2015,08,17,12,41,20.20
2015,08,17,12,42,20.20
2015,08,17,12,43,20.20
2015,08,17,12,44,20.20
2015,08,17,12,45,20.20
2015,08,17,12,46,20.20
2015,08,17,12,47,20.20
2015,08,17,12,48,20.30
2015,08,17,12,49,20.30
2015,08,17,12,50,20.30
2015,08,17,12,51,20.30
2015,08,17,12,52,20.40
2015,08,17,12,53,20.40
2015,08,17,12,54,20.50
2015,08,17,12,55,20.50
2015,08,17,12,56,20.40
2015,08,17,12,57,20.50
2015,08,17,12,58,20.50
2015,08,17,12,59,20.40
2015,08,17,13,00,20.50
2015,08,17,13,01,20.50
2015,08,17,13,02,20.50
2015,08,17,13,03,20.50
2015,08,17,13,04,20.60
2015,08,17,13,05,20.60
2015,08,17,13,06,20.70
2015,08,17,13,07,20.70
2015,08,17,13,08,20.70
2015,08,17,13,09,20.80
2015,08,17,13,10,20.80
2015,08,17,13,11,20.80
2015,08,17,13,12,20.80
2015,08,17,13,13,20.90
2015,08,17,13,14,21.00
2015,08,17,13,15,21.00
2015,08,17,13,16,21.10
2015,08,17,13,17,21.10
2015,08,17,13,18,21.10
2015,08,17,13,19,21.10
2015,08,17,13,20,21.00
2015,08,17,13,21,21.00
2015,08,17,13,22,20.90
2015,08,17,13,23,21.00
2015,08,17,13,24,21.00
2015,08,17,13,25,21.10
2015,08,17,13,26,21.10
2015,08,17,13,27,21.10
2015,08,17,13,28,21.10
2015,08,17,13,29,21.20
2015,08,17,13,30,21.30
2015,08,17,13,31,21.30
2015,08,17,13,32,21.20
2015,08,17,13,33,21.20
2015,08,17,13,34,21.10
2015,08,17,13,35,21.10
2015,08,17,13,36,21.00
2015,08,17,13,37,21.00
2015,08,17,13,38,21.00
2015,08,17,13,39,21.10
2015,08,17,13,40,21.10
2015,08,17,13,41,21.10
2015,08,17,13,42,21.00
2015,08,17,13,43,21.00
2015,08,17,13,44,21.00
2015,08,17,13,45,21.00
2015,08,17,13,46,21.10
2015,08,17,13,47,21.10
2015,08,17,13,48,21.20
2015,08,17,13,49,21.30
2015,08,17,13,50,21.50
2015,08,17,13,51,21.60
2015,08,17,13,52,21.70
2015,08,17,13,53,21.80
2015,08,17,13,54,21.90
2015,08,17,13,55,22.00
2015,08,17,13,56,22.10
2015,08,17,13,57,22.10
2015,08,17,13,58,22.10
2015,08,17,13,59,22.10
2015,08,17,14,00,22.00
2015,08,17,14,01,22.00
2015,08,17,14,02,21.90
2015,08,17,14,03,21.90
2015,08,17,14,04,21.80
2015,08,17,14,05,21.70
2015,08,17,14,06,21.70
2015,08,17,14,07,21.60
2015,08,17,14,08,21.60
2015,08,17,14,09,21.50
2015,08,17,14,10,21.50
2015,08,17,14,11,21.40
2015,08,17,14,12,21.40
2015,08,17,14,13,21.50
2015,08,17,14,14,21.50
2015,08,17,14,15,21.70
2015,08,17,14,16,21.80
2015,08,17,14,17,21.80
2015,08,17,14,18,21.80
2015,08,17,14,19,21.80
2015,08,17,14,20,21.80
2015,08,17,14,21,21.80
2015,08,17,14,22,21.90
2015,08,17,14,23,21.90
2015,08,17,14,24,21.90
2015,08,17,14,25,22.00
2015,08,17,14,26,22.00
2015,08,17,14,27,22.10
2015,08,17,14,28,22.10
2015,08,17,14,29,22.20
2015,08,17,14,30,22.30
2015,08,17,14,31,22.30
2015,08,17,14,32,22.30
2015,08,17,14,33,22.30
2015,08,17,14,34,22.30
2015,08,17,14,35,22.30
2015,08,17,14,36,22.30
2015,08,17,14,37,22.20
2015,08,17,14,38,22.20
2015,08,17,14,39,22.20
2015,08,17,14,40,22.30
2015,08,17,14,41,22.30
2015,08,17,14,42,22.30
2015,08,17,14,43,22.30
2015,08,17,14,44,22.30
2015,08,17,14,45,22.30
2015,08,17,14,46,22.30
2015,08,17,14,47,22.30
2015,08,17,14,48,22.40
2015,08,17,14,49,22.30
2015,08,17,14,50,22.30
2015,08,17,14,51,22.30
2015,08,17,14,52,22.30
2015,08,17,14,53,22.30
2015,08,17,14,54,22.40
2015,08,17,14,55,22.40
2015,08,17,14,56,22.50
2015,08,17,14,57,22.50
2015,08,17,14,58,22.60
2015,08,17,14,59,22.60
2015,08,17,15,00,22.60
2015,08,17,15,01,22.60
2015,08,17,15,02,22.50
2015,08,17,15,03,22.50
2015,08,17,15,04,22.40
2015,08,17,15,05,22.40
2015,08,17,15,06,22.40
2015,08,17,15,07,22.40
2015,08,17,15,08,22.40
2015,08,17,15,09,22.40
2015,08,17,15,10,22.50
2015,08,17,15,11,22.50
2015,08,17,15,12,22.60
2015,08,17,15,13,22.70
2015,08,17,15,14,22.80
2015,08,17,15,15,22.90
2015,08,17,15,16,23.00
2015,08,17,15,17,23.10
2015,08,17,15,18,23.20
2015,08,17,15,19,23.30
2015,08,17,15,20,23.40
2015,08,17,15,21,23.40
2015,08,17,15,22,23.40
2015,08,17,15,23,23.40
2015,08,17,15,24,23.40
2015,08,17,15,25,23.40
2015,08,17,15,26,23.40
2015,08,17,15,27,23.40
2015,08,17,15,28,23.40
2015,08,17,15,29,23.30
2015,08,17,15,30,23.30
2015,08,17,15,31,23.30
2015,08,17,15,32,23.30
2015,08,17,15,33,23.30
2015,08,17,15,34,23.30
2015,08,17,15,35,23.40
2015,08,17,15,36,23.50
2015,08,17,15,37,23.60
2015,08,17,15,38,23.60
2015,08,17,15,39,23.70
2015,08,17,15,40,23.80
2015,08,17,15,41,23.80
2015,08,17,15,42,23.80
2015,08,17,15,43,23.80
2015,08,17,15,44,23.70
2015,08,17,15,45,23.70
2015,08,17,15,46,23.60
2015,08,17,15,47,23.50
2015,08,17,15,48,23.40
2015,08,17,15,49,23.40
2015,08,17,15,50,23.40
2015,08,17,15,51,23.30
2015,08,17,15,52,23.30
2015,08,17,15,53,23.30
2015,08,17,15,54,23.30
2015,08,17,15,55,23.30
2015,08,17,15,56,23.30
2015,08,17,15,57,23.30
2015,08,17,15,58,23.20
2015,08,17,15,59,23.20
2015,08,17,16,00,23.30
2015,08,17,16,01,23.30
2015,08,17,16,02,23.30
2015,08,17,16,03,23.30
2015,08,17,16,04,23.30
2015,08,17,16,05,23.30
2015,08,17,16,06,23.20
2015,08,17,16,07,23.20
2015,08,17,16,08,23.10
2015,08,17,16,09,23.10
2015,08,17,16,10,23.10
2015,08,17,16,11,23.10
2015,08,17,16,12,23.10
2015,08,17,16,13,23.00
2015,08,17,16,14,23.00
2015,08,17,16,15,22.90
2015,08,17,16,16,22.90
2015,08,17,16,17,23.00
2015,08,17,16,18,23.10
2015,08,17,16,19,23.20
2015,08,17,16,20,23.20
2015,08,17,16,21,23.30
2015,08,17,16,22,23.30
2015,08,17,16,23,23.30
2015,08,17,16,24,23.30
2015,08,17,16,25,23.40
2015,08,17,16,26,23.50
2015,08,17,16,27,23.60
2015,08,17,16,28,23.70
2015,08,17,16,29,23.70
2015,08,17,16,30,23.80
2015,08,17,16,31,23.80
2015,08,17,16,32,23.70
2015,08,17,16,33,23.60
2015,08,17,16,34,23.60
2015,08,17,16,35,23.60
2015,08,17,16,36,23.60
2015,08,17,16,37,23.60
2015,08,17,16,38,23.60
2015,08,17,16,39,23.60
2015,08,17,16,40,23.60
2015,08,17,16,41,23.60
2015,08,17,16,42,23.50
2015,08,17,16,43,23.50
2015,08,17,16,44,23.50
2015,08,17,16,45,23.40
2015,08,17,16,46,23.40
2015,08,17,16,47,23.40
2015,08,17,16,48,23.40
2015,08,17,16,49,23.40
2015,08,17,16,50,23.40
2015,08,17,16,51,23.40
2015,08,17,16,52,23.30
2015,08,17,16,53,23.30
2015,08,17,16,54,23.20
2015,08,17,16,55,23.20
2015,08,17,16,56,23.10
2015,08,17,16,57,23.10
2015,08,17,16,58,23.20
2015,08,17,16,59,23.20
2015,08,17,17,00,23.20
2015,08,17,17,01,23.30
2015,08,17,17,02,23.30
2015,08,17,17,03,23.30
2015,08,17,17,04,23.40
2015,08,17,17,05,23.40
2015,08,17,17,06,23.40
2015,08,17,17,07,23.50
2015,08,17,17,08,23.50
2015,08,17,17,09,23.50
2015,08,17,17,10,23.50
2015,08,17,17,11,23.50
2015,08,17,17,12,23.60
2015,08,17,17,13,23.60
2015,08,17,17,14,23.60
2015,08,17,17,15,23.60
2015,08,17,17,16,23.70
2015,08,17,17,17,23.70
2015,08,17,17,18,23.70
2015,08,17,17,19,23.80
2015,08,17,17,20,23.80
2015,08,17,17,21,23.80
2015,08,17,17,22,23.80
2015,08,17,17,23,23.70
2015,08,17,17,24,23.70
2015,08,17,17,25,23.70
2015,08,17,17,26,23.70
2015,08,17,17,27,23.70
2015,08,17,17,28,23.70
2015,08,17,17,29,23.70
2015,08,17,17,30,23.70
2015,08,17,17,31,23.70
2015,08,17,17,32,23.60
2015,08,17,17,33,23.60
2015,08,17,17,34,23.60
2015,08,17,17,35,23.60
2015,08,17,17,36,23.60
2015,08,17,17,37,23.60
2015,08,17,17,38,23.60
2015,08,17,17,39,23.60
2015,08,17,17,40,23.60
2015,08,17,17,41,23.70
2015,08,17,17,42,23.70
2015,08,17,17,43,23.80
2015,08,17,17,44,23.80
2015,08,17,17,45,23.90
2015,08,17,17,46,24.00
2015,08,17,17,47,24.10
2015,08,17,17,48,24.20
2015,08,17,17,49,24.30
2015,08,17,17,50,24.30
2015,08,17,17,51,24.20
2015,08,17,17,52,24.20
2015,08,17,17,53,24.20
2015,08,17,17,54,24.10
2015,08,17,17,55,24.10
2015,08,17,17,56,24.00
2015,08,17,17,57,24.00
2015,08,17,17,58,24.00
2015,08,17,17,59,24.00
2015,08,17,18,00,24.00
2015,08,17,18,01,23.90
2015,08,17,18,02,24.00
2015,08,17,18,03,24.00
2015,08,17,18,04,24.00
2015,08,17,18,05,24.00
2015,08,17,18,06,24.10
2015,08,17,18,07,24.10
2015,08,17,18,08,24.20
2015,08,17,18,09,24.20
2015,08,17,18,10,24.20
2015,08,17,18,11,24.20
2015,08,17,18,12,24.20
2015,08,17,18,13,24.20
2015,08,17,18,14,24.20
2015,08,17,18,15,24.30
2015,08,17,18,16,24.30
2015,08,17,18,17,24.30
2015,08,17,18,18,24.30
2015,08,17,18,19,24.30
2015,08,17,18,20,24.30
2015,08,17,18,21,24.30
2015,08,17,18,22,24.20
2015,08,17,18,23,24.20
2015,08,17,18,24,24.20
2015,08,17,18,25,24.10
2015,08,17,18,26,24.00
2015,08,17,18,27,23.90
2015,08,17,18,28,23.80
2015,08,17,18,29,23.70
2015,08,17,18,30,23.60
2015,08,17,18,31,23.50
2015,08,17,18,32,23.40
2015,08,17,18,33,23.20
2015,08,17,18,34,23.10
2015,08,17,18,35,23.00
2015,08,17,18,36,22.90
2015,08,17,18,37,22.80
2015,08,17,18,38,22.70
2015,08,17,18,39,22.60
2015,08,17,18,40,22.60
2015,08,17,18,41,22.50
2015,08,17,18,42,22.40
2015,08,17,18,43,22.40
2015,08,17,18,44,22.40
2015,08,17,18,45,22.30
2015,08,17,18,46,22.30
2015,08,17,18,47,22.30
2015,08,17,18,48,22.20
2015,08,17,18,49,22.20
2015,08,17,18,50,22.20
2015,08,17,18,51,22.20
2015,08,17,18,52,22.20
2015,08,17,18,53,22.20
2015,08,17,18,54,22.20
2015,08,17,18,55,22.30
2015,08,17,18,56,22.30
2015,08,17,18,57,22.30
2015,08,17,18,58,22.30
2015,08,17,18,59,22.40
2015,08,17,19,00,22.40
2015,08,17,19,01,22.40